Regional Weather Roundup
Issued by NWS Mt. Holly, NJ

Home | Current Version | Previous Version | Text Only | Print | Product List | Glossary On
Versions: 1 2 3 4 5 6 7 8 9 10 11 12 13 14 15 16 17 18 19 20 21 22 23 24 25 26 27 28 29 30 31 32 33 34 35 36 37 38 39 40 41 42 43 44 45 46 47 48 49 50
000
ASUS41 KPHI 280512
RWRPHI

REGIONAL WEATHER ROUNDUP
NATIONAL WEATHER SERVICE MOUNT HOLLY NJ
1200 AM EST SAT FEB 28 2015

NOTE:  "FAIR" INDICATES FEW OR NO CLOUDS BELOW 12,000 FEET WITH NO
SIGNIFICANT WEATHER AND/OR OBSTRUCTIONS TO VISIBILITY.

 * = STATION DOES NOT REPORT PRECIPITATION (E.G. RAIN, SNOW, ETC.)
        OR FOG.

NJZ015>026-280600-
SOUTHERN NEW JERSEY

CITY           SKY/WX    TMP DP  RH WIND       PRES   REMARKS
POMONA         CLEAR     17   7  64 NW7       30.63R WCI   8
RIO GRANDE*    CLEAR     25   9  50 N7        30.63R WCI  17
MILLVILLE      CLEAR     18   7  62 NW8       30.62R WCI   8
WRIGHTSTOWN    CLEAR     17   5  58 NW5       30.60R WCI  10
MOUNT HOLLY    CLEAR     19   5  54 CALM      30.63R
TRENTON        CLEAR     19   0  43 N5        30.62R WCI  12

$$
NJZ001>014-280600-
NORTHERN NEW JERSEY

CITY           SKY/WX    TMP DP  RH WIND       PRES   REMARKS
SUSSEX         CLEAR      6  -4  63 CALM      30.61R
ANDOVER*         N/A     12  -4  48 N6        30.61R WCI   3
MORRISTOWN     CLEAR     19  -4  35 N3        30.63R
NEWARK         CLEAR     20   1  43 N10       30.63R WCI   9
TETERBORO      CLEAR     18  -3  39 NW8       30.62R WCI   8
CALDWELL       CLEAR     15  -3  44 CALM      30.63R
SOMERVILLE     CLEAR     11   0  61 CALM      30.62R
ALLAIRE*       CLEAR     19   1  45 NW5       30.60R WCI  13
TOMS RIVER*    CLEAR     12   9  85 CALM      30.62R

$$
PAZ043-044-047-054-055-060>062-066>071-280600-
EASTERN PENNSYLVANIA

CITY           SKY/WX    TMP DP  RH WIND       PRES   REMARKS
PHILADELPHIA   CLEAR     23   6  48 NW10      30.65R WCI  12
NORTH PHILA    CLEAR     21   3  45 NW7       30.64R WCI  12
BLUE BELL      CLEAR     21   7  53 NW5       30.61S WCI  15
DOYLESTOWN     CLEAR     14   4  64 N5        30.60R WCI   6
QUAKERTOWN*    CLEAR      7   0  72 CALM      30.61R
POTTSTOWN      CLEAR     15   4  61 N5        30.63R WCI   8
LANCASTER      CLEAR     16   1  51 NW10      30.63R WCI   4
COATESVILLE    CLEAR     19   5  53 NW10      30.60S WCI   8
READING        CLEAR     16  -1  47 NW3       30.63R
ALLENTOWN      CLEAR     11  -4  51 N6        30.62R WCI   1
MOUNT POCONO     N/A    N/A N/A N/A MISG      30.47R
HAZLETON       CLEAR     12   0  57 N9        30.55S WCI   0
WILKES BARRE   CLEAR      9  -3  58 NE3       30.60R

$$
DEZALL-MDZ008-012-015-019-020-280600-
DELAWARE AND EASTERN MARYLAND

CITY           SKY/WX    TMP DP  RH WIND       PRES   REMARKS
WILMINGTON     CLEAR     21   5  50 NW10      30.64R WCI  10
DOVER          CLEAR     21   9  59 NW12      30.63R WCI   9
GEORGETOWN     CLEAR     22   8  55 CALM      30.63R
EASTON         CLEAR     25  11  56 N6        30.68R WCI  18
PATUXENT       CLEAR     25   8  48 N13       30.65R WCI  14
OCEAN CITY     FAIR      14  10  84 NW5       30.63R WCI   6
WALLOPS ISLAND CLEAR     21  16  81 N5        30.63S WCI  15
CAMBRIDGE      CLEAR     27  12  54 N3        30.64R
SALISBURY      CLEAR     18  11  74 CALM      30.63R

$$
PAZ001-021-NYZ056-072-MDZ011-DCZ001-280600-
OTHER NEARBY LOCATIONS

CITY           SKY/WX    TMP DP  RH WIND       PRES   REMARKS
HARRISBURG     CLEAR     18   0  45 NW12      30.66R WCI   5
STATE COLLEGE  PTCLDY     9  -5  52 CALM      30.62R
WILLIAMSPORT   CLEAR     13  -2  51 NW5       30.67R WCI   5
BINGHAMTON     FAIR       2  -6  69 NW5       30.53R WCI  -8
NEW YORK CITY  CLEAR     21  -3  35 NW8       30.63R WCI  11
BALTIMORE      PTCLDY    20   1  43 NW9       30.66R WCI   9
WASHINGTON DC  CLEAR     25   1  35 N10G20    30.69R WCI  15

$$



USA.gov is the U.S. government's official web portal to all federal, state and local government web resources and services.